Temp
29 29 28 28 28 28 26 24 25 25 25 26 28 29 30 31 33 35 36 37 36 35 36 36 35 36 35 37 40 41 41 40 36 35 37 38 37 38 37 39 37 37 37
28 27 27 26 25 23 22 21 22 21 23 24 26 27 28 28 31 33 34 35 36 34 34 35 35 35 35 35 36 37 37 38 36 32 33 33 33 34 36 35 37 37 34
25 24 22 21 20 18 17 18 19 18 19 22 23 24 25 26 29 32 34 34 35 35 34 33 34 34 33 34 35 35 35 37 36 32 32 32 32 32 32 32 32 33 35
22 19 17 17 17 15 13 12 12 15 16 18 21 21 23 24 30 33 34 33 34 35 34 34 34 33 32 33 34 34 35 33 32 32 32 32 32 32 32 32 31 32 32
16 13 8 12 13 10 7 7 10 11 14 15 18 20 21 26 32 32 33 31 32 33 33 33 35 33 34 36 34 34 34 32 32 32 32 32 32 31 32 32 32 32 31
9 1 5 5 6 4 2 5 6 9 11 14 15 19 20 26 31 33 34 30 31 31 31 32 33 34 34 36 36 35 36 33 32 32 32 32 32 32 32 32 32 30 29
3 1 -0 -1 1 0 2 3 8 11 13 13 15 18 18 22 30 32 32 31 30 31 31 32 31 33 34 34 35 36 33 35 35 33 32 32 32 32 32 32 31 31 30
-0 -1 -0 -2 -1 1 1 4 6 11 12 15 15 15 18 21 28 31 31 30 30 30 30 31 31 31 33 34 33 33 32 32 32 33 32 33 33 33 33 32 32 30 30
-2 -1 -1 -1 -1 -1 3 4 5 12 14 14 16 15 16 16 27 30 30 26 27 28 30 31 31 31 34 36 32 32 33 32 34 35 36 36 37 37 35 32 29 30 28
-0 1 1 1 1 -1 2 4 7 10 16 17 18 17 17 17 25 29 29 26 24 26 28 29 30 32 34 36 33 32 32 31 31 31 31 32 32 33 34 31 31 30 29
6 6 4 5 6 7 9 11 11 12 14 11 16 17 17 18 19 28 28 24 24 23 24 25 26 31 34 35 36 33 33 32 32 31 30 30 30 30 30 30 29 29 29
9 9 7 7 12 13 11 14 14 15 15 14 15 15 17 18 22 25 26 27 27 23 22 24 26 31 33 35 34 36 35 33 32 31 29 28 27 27 27 28 28 26 27
7 4 6 9 13 14 13 14 13 14 14 14 14 13 14 17 18 23 24 25 25 23 24 26 27 30 32 32 34 35 32 32 32 30 28 26 26 27 27 27 26 27 23
2 5 9 9 10 11 15 15 12 11 11 13 13 12 13 14 16 20 21 21 22 22 22 20 24 28 30 31 30 31 31 31 30 29 27 26 28 27 25 26 26 28 28
4 8 10 10 8 10 13 11 13 14 16 12 11 14 12 11 17 23 23 21 20 21 18 14 17 19 21 24 27 28 30 30 29 29 29 27 27 25 24 27 28 28 27
6 8 7 8 7 9 8 8 18 19 21 20 21 20 18 21 24 24 24 23 22 21 9 9 13 15 17 20 21 24 28 28 29 29 29 28 27 26 23 26 27 27 26
1 6 4 6 6 5 5 5 2 9 18 20 20 21 21 21 23 23 22 18 18 14 0 7 9 12 14 16 17 19 21 26 29 29 29 28 27 24 23 22 26 26 25
-5 2 1 3 3 2 3 3 2 0 -0 2 13 18 20 20 22 21 20 12 -2 2 -2 3 6 8 9 12 14 15 18 23 25 26 28 29 28 26 23 22 23 25 25
-3 -1 -1 -0 0 1 -1 1 0 -1 -2 -3 -2 9 9 17 18 18 16 -2 -6 -7 -6 -2 1 4 7 9 11 14 16 18 24 25 27 28 28 27 24 23 22 23 25
-6 -1 -1 -3 -3 -3 -2 -4 -3 -4 -6 -7 -6 -3 -1 -3 -4 -4 -3 -4 -5 -7 -7 -7 -3 -3 -0 5 8 11 13 15 19 22 24 27 28 28 25 24 22 21 25
-3 -5 -4 -9 -8 -7 -7 -6 -6 -8 -8 -8 -4 -2 16 -3 -7 -7 -5 -6 -5 -4 -5 -8 -6 -5 -5 -5 1 5 8 12 15 18 19 22 26 27 27 24 22 23 23
-1 -4 -6 -6 -10 -8 -9 -8 -9 -9 -9 -7 -3 -5 14 -6 -7 -8 -6 -5 -8 -6 -5 -6 -8 -9 -9 -8 -5 -1 2 8 12 12 14 16 20 26 28 23 22 22 21
-3 -5 -5 -8 -6 -6 -10 -12 -12 -11 -7 -6 -6 -7 -9 -9 -9 -9 -8 -6 -7 -7 -8 -8 -9 -5 -5 -9 -8 -7 -4 1 9 11 11 14 16 19 25 27 21 22 22
-4 -4 -4 -6 -7 -6 -7 -8 -7 -6 -8 -9 -9 -6 -6 -8 -9 -9 -9 -8 -8 -7 -9 -8 -8 -5 -4 -7 -7 -5 -5 -2 -1 5 7 11 14 17 19 27 20 22 22
-4 -4 -4 -5 -5 -6 -11 -11 -9 -12 -10 -8 -6 -7 -7 -9 -10 -10 -10 -10 -10 -10 -7 -5 -6 -5 -3 -2 -3 -5 -4 1 -0 3 7 10 13 15 17 22 19 21 21
-7 -8 -8 -11 -12 -13 -10 -8 -7 -8 -7 -6 -6 -6 -6 -7 -6 -8 -11 -11 -11 -10 -8 -7 -4 -2 -2 -2 -1 2 2 8 4 4 6 9 12 15 18 19 20 20 20
MSLP
1032.62 1032.57 1032.36 1032.18 1031.82 1031.53 1031.36 1031.19 1030.85 1030.32 1029.70 1028.96 1028.01 1027.19 1026.40 1025.79 1024.95 1024.06 1023.36 1022.49 1021.81 1021.53 1020.83 1020.18 1019.43 1018.66 1018.05 1017.40 1016.60 1016.21 1016.40 1016.64 1016.55 1016.65 1016.92 1016.82 1016.94 1017.46 1017.94 1017.94 1018.05 1018.42 1018.65
1033.11 1032.92 1033.02 1032.89 1032.61 1032.34 1031.99 1031.72 1031.42 1031.01 1030.46 1029.61 1028.67 1027.91 1027.21 1026.49 1025.65 1024.71 1023.85 1023.06 1022.41 1021.92 1021.16 1020.59 1019.98 1019.22 1018.51 1017.87 1017.35 1016.77 1016.78 1016.78 1016.59 1016.56 1017.20 1017.23 1017.28 1017.65 1017.98 1018.19 1018.21 1018.53 1018.90
1033.58 1033.52 1033.88 1033.76 1033.39 1033.24 1032.89 1032.36 1031.90 1031.52 1030.89 1030.02 1029.30 1028.61 1027.85 1027.08 1026.16 1025.16 1024.35 1023.62 1023.00 1022.42 1021.96 1021.30 1020.56 1019.78 1018.92 1018.30 1017.88 1017.20 1017.08 1016.89 1016.76 1016.90 1017.18 1017.26 1017.70 1018.05 1018.19 1018.46 1018.60 1018.73 1018.84
1034.15 1034.27 1034.82 1034.78 1034.32 1034.02 1033.56 1033.16 1032.66 1032.00 1031.27 1030.54 1029.84 1029.16 1028.39 1027.48 1026.42 1025.52 1024.64 1024.01 1023.42 1022.92 1022.47 1021.83 1021.17 1020.50 1019.95 1018.92 1018.11 1017.74 1017.42 1017.21 1017.30 1017.13 1017.05 1017.22 1017.75 1018.11 1018.05 1018.25 1018.43 1018.81 1018.90
1034.78 1035.14 1035.60 1035.51 1035.05 1034.71 1034.14 1033.58 1033.01 1032.46 1031.75 1031.00 1030.07 1029.27 1028.66 1027.55 1026.62 1025.86 1025.11 1024.45 1023.82 1023.23 1022.78 1022.23 1021.59 1021.01 1020.18 1019.29 1018.65 1017.94 1017.74 1017.42 1017.53 1017.04 1017.06 1017.31 1017.78 1017.85 1018.01 1018.16 1018.45 1018.89 1019.33
1035.46 1035.70 1035.91 1035.98 1035.55 1035.03 1034.35 1033.79 1033.28 1032.66 1031.95 1031.12 1030.40 1029.73 1028.99 1028.08 1027.13 1026.39 1025.42 1024.86 1024.15 1023.62 1023.09 1022.53 1022.12 1021.32 1020.50 1019.62 1018.99 1018.38 1018.00 1017.81 1017.75 1016.99 1017.34 1017.60 1017.73 1017.76 1018.16 1018.13 1018.55 1018.91 1019.00
1035.70 1036.04 1036.08 1036.20 1035.77 1035.09 1034.37 1033.91 1033.37 1032.75 1032.05 1031.36 1030.78 1030.12 1029.45 1028.77 1027.49 1026.50 1025.91 1025.28 1024.66 1024.20 1023.69 1023.01 1022.40 1021.80 1021.12 1020.19 1019.51 1018.93 1018.50 1018.30 1017.87 1017.54 1017.70 1017.85 1017.86 1018.01 1018.09 1018.54 1018.62 1018.81 1019.03
1036.11 1036.33 1036.26 1036.30 1035.85 1035.17 1034.34 1033.98 1033.48 1032.92 1032.31 1031.72 1031.05 1030.45 1029.88 1029.22 1027.91 1026.86 1026.25 1025.70 1025.18 1024.82 1024.17 1023.62 1023.02 1022.16 1021.42 1020.64 1019.99 1019.32 1018.93 1018.71 1018.54 1018.33 1018.26 1018.18 1018.17 1018.16 1018.32 1018.58 1018.82 1019.11 1019.17
1036.54 1036.22 1036.13 1036.22 1035.74 1035.08 1034.52 1034.06 1033.58 1033.12 1032.50 1031.94 1031.35 1030.64 1030.16 1029.71 1028.39 1027.28 1026.67 1026.39 1025.86 1025.27 1024.62 1024.06 1023.57 1022.78 1021.83 1020.90 1020.34 1019.87 1019.31 1019.22 1019.25 1018.93 1018.77 1018.48 1018.39 1018.40 1018.50 1018.79 1019.34 1019.10 1019.18
1036.30 1036.02 1035.91 1035.94 1035.45 1034.83 1034.48 1034.07 1033.68 1033.16 1032.60 1032.00 1031.50 1030.91 1030.36 1029.99 1029.01 1027.74 1027.15 1026.92 1026.37 1025.77 1025.07 1024.55 1024.09 1023.23 1022.18 1021.44 1020.80 1020.33 1019.77 1019.73 1019.70 1019.48 1019.41 1019.31 1019.33 1019.43 1019.27 1019.32 1019.52 1019.22 1019.43
1035.73 1035.66 1035.56 1035.56 1035.21 1034.72 1034.29 1033.95 1033.51 1033.06 1032.54 1032.05 1031.63 1031.27 1030.90 1030.42 1029.72 1028.32 1027.74 1027.41 1026.94 1026.47 1025.78 1025.10 1024.52 1023.70 1022.62 1021.82 1021.21 1020.77 1020.43 1020.22 1020.01 1019.85 1019.85 1019.92 1020.08 1020.30 1020.13 1019.96 1020.10 1019.84 1019.79
1035.39 1035.44 1035.29 1035.28 1034.89 1034.52 1034.12 1033.88 1033.47 1033.14 1032.71 1032.35 1031.96 1031.65 1031.32 1030.85 1030.05 1029.26 1028.55 1027.85 1027.27 1027.00 1026.46 1025.81 1025.09 1024.16 1023.07 1022.25 1021.74 1021.25 1020.86 1020.48 1020.18 1020.06 1020.40 1020.69 1020.88 1020.82 1020.99 1020.69 1020.77 1020.62 1020.59
1035.22 1035.18 1035.04 1035.15 1034.81 1034.35 1033.99 1033.88 1033.64 1033.41 1033.06 1032.75 1032.36 1032.05 1031.68 1031.32 1030.75 1029.90 1029.18 1028.47 1027.96 1027.36 1026.93 1026.21 1025.59 1024.41 1023.56 1022.81 1022.10 1021.65 1021.23 1020.79 1020.59 1020.75 1021.21 1021.49 1021.38 1021.25 1021.19 1021.11 1021.08 1021.03 1021.16
1035.08 1034.89 1034.59 1034.74 1034.73 1034.41 1034.10 1033.97 1033.81 1033.72 1033.32 1033.02 1032.72 1032.42 1032.08 1031.61 1030.86 1030.02 1029.34 1028.92 1028.32 1027.78 1027.20 1026.90 1025.90 1024.78 1024.03 1023.34 1022.72 1022.29 1021.94 1021.60 1021.56 1021.70 1021.83 1021.82 1021.72 1021.53 1021.57 1021.37 1021.18 1021.26 1021.28
1034.75 1034.73 1034.55 1034.59 1034.60 1034.42 1034.14 1033.80 1033.81 1033.89 1033.31 1032.94 1032.84 1032.57 1032.19 1031.60 1030.79 1029.96 1029.34 1028.85 1028.37 1027.94 1027.70 1027.39 1026.49 1025.70 1024.98 1024.32 1023.62 1023.25 1022.94 1022.51 1022.30 1022.32 1022.14 1022.07 1021.97 1021.96 1022.05 1021.79 1021.51 1021.58 1021.59
1034.65 1034.63 1034.52 1034.57 1034.46 1034.39 1034.30 1034.03 1033.48 1033.23 1033.01 1032.81 1032.62 1032.42 1032.30 1031.78 1030.85 1030.15 1029.55 1029.30 1028.94 1028.48 1028.73 1028.38 1027.73 1027.15 1026.53 1025.88 1024.97 1024.32 1023.81 1023.64 1023.16 1022.56 1022.26 1022.25 1022.38 1022.35 1022.61 1022.34 1021.95 1021.98 1021.99
1034.27 1034.17 1034.54 1034.77 1034.59 1034.72 1034.63 1034.70 1034.39 1033.70 1033.27 1032.92 1032.66 1032.48 1032.15 1031.89 1030.97 1030.52 1030.25 1030.60 1030.13 1030.00 1030.05 1029.68 1029.19 1028.64 1028.03 1027.26 1026.44 1025.74 1025.14 1024.41 1023.56 1023.07 1022.85 1022.75 1022.85 1022.90 1022.86 1022.61 1022.30 1022.53 1022.51
1034.23 1033.92 1034.26 1034.64 1034.70 1034.60 1034.56 1034.80 1034.96 1034.81 1034.37 1033.82 1033.23 1032.81 1032.31 1032.16 1031.48 1031.19 1031.10 1031.73 1031.52 1031.06 1031.14 1031.00 1030.51 1029.97 1029.39 1028.53 1027.69 1027.06 1026.29 1025.33 1024.52 1023.91 1023.44 1023.32 1023.23 1022.97 1022.92 1022.89 1023.04 1023.00 1023.04
1033.98 1033.93 1034.12 1034.47 1034.83 1034.78 1034.73 1034.86 1035.01 1035.24 1035.25 1034.90 1033.90 1033.30 1033.40 1032.52 1032.06 1032.00 1031.95 1032.53 1032.85 1032.85 1032.09 1031.82 1031.40 1031.03 1030.50 1029.77 1028.98 1028.25 1027.46 1026.61 1025.51 1024.71 1024.16 1023.97 1023.77 1023.48 1023.44 1023.37 1023.44 1023.41 1023.29
1033.63 1034.04 1034.01 1034.27 1034.68 1034.99 1034.92 1035.19 1035.47 1035.73 1035.67 1035.44 1034.97 1034.40 1033.92 1033.62 1033.17 1032.82 1032.90 1033.05 1033.05 1032.97 1032.67 1032.32 1031.96 1031.66 1031.27 1030.76 1030.13 1029.30 1028.46 1027.68 1026.73 1025.87 1025.20 1024.69 1024.29 1023.88 1023.82 1023.62 1023.71 1023.69 1023.65
1032.99 1033.30 1033.89 1034.50 1034.69 1034.94 1034.97 1035.38 1035.39 1035.77 1035.82 1035.58 1034.94 1034.35 1033.93 1033.81 1033.77 1033.46 1033.30 1033.28 1033.33 1033.18 1032.82 1032.64 1032.45 1032.17 1031.70 1031.45 1030.82 1030.29 1029.66 1028.78 1028.13 1027.47 1026.58 1025.62 1024.94 1024.47 1024.12 1023.92 1024.02 1023.97 1024.30
1033.24 1033.54 1033.63 1034.26 1034.50 1034.74 1034.85 1034.83 1035.11 1035.40 1035.45 1035.47 1034.63 1034.25 1034.03 1034.06 1033.90 1033.70 1033.50 1033.34 1033.28 1032.91 1032.63 1032.55 1032.38 1032.18 1031.85 1031.58 1031.22 1030.86 1030.25 1029.54 1028.66 1027.92 1027.10 1026.39 1025.76 1024.92 1024.41 1024.24 1024.25 1024.37 1024.66
1032.79 1032.70 1033.21 1033.47 1033.85 1034.08 1034.34 1034.53 1034.81 1035.00 1035.04 1034.71 1034.33 1034.08 1034.04 1033.99 1033.92 1033.79 1033.66 1033.16 1032.70 1032.59 1032.36 1032.18 1032.17 1031.72 1031.29 1031.17 1030.84 1030.77 1030.70 1029.98 1029.24 1028.71 1028.23 1027.49 1026.74 1026.07 1025.12 1024.63 1024.55 1024.70 1024.88
1032.66 1032.78 1032.95 1033.15 1033.38 1033.70 1033.90 1034.25 1034.30 1034.26 1034.32 1034.20 1033.99 1033.85 1033.82 1033.73 1033.69 1033.66 1033.34 1032.96 1032.63 1032.24 1031.99 1031.88 1031.70 1031.40 1031.06 1030.82 1030.55 1030.17 1029.98 1029.72 1029.48 1029.22 1028.96 1028.23 1027.32 1026.56 1025.76 1024.91 1024.81 1024.92 1024.88
1031.75 1032.41 1032.55 1032.74 1032.93 1033.12 1033.43 1033.57 1033.70 1033.71 1033.67 1033.62 1033.56 1033.39 1033.27 1033.28 1033.34 1033.52 1032.95 1032.67 1032.50 1032.41 1031.96 1031.51 1031.26 1031.02 1030.68 1030.37 1030.10 1029.90 1029.56 1029.33 1029.23 1028.94 1028.65 1028.30 1027.73 1027.10 1026.40 1025.42 1025.08 1024.89 1025.08
1031.23 1031.63 1031.99 1032.21 1032.35 1032.38 1032.66 1032.99 1033.04 1033.04 1033.07 1032.97 1032.90 1032.83 1032.84 1032.82 1032.87 1032.58 1032.54 1032.45 1032.29 1032.03 1031.67 1031.39 1030.90 1030.51 1030.29 1030.00 1029.62 1029.28 1029.09 1028.80 1028.71 1028.50 1028.28 1028.08 1027.65 1027.04 1026.51 1025.86 1025.14 1025.12 1025.36
Wind_Speed
5 6 6 8 10 9 9 10 11 12 13 13 13 13 14 14 14 13 13 13 12 12 12 11 12 10 7 6 6 3 1 3 1 1 1 2 2 4 2 3 4 3 2
5 7 8 9 10 10 10 11 11 12 12 12 12 12 12 13 13 14 14 13 12 12 13 12 12 9 9 8 6 5 4 3 2 3 1 1 2 3 3 2 2 2 1
6 8 9 9 10 10 10 11 12 12 12 12 12 12 13 12 11 13 12 12 11 11 11 12 11 12 11 8 6 4 3 3 2 1 2 1 1 1 1 1 1 1 1
7 8 9 10 10 10 9 9 10 11 11 11 10 10 11 12 9 14 13 13 11 10 10 10 10 11 11 9 6 6 3 1 2 1 1 2 1 1 1 1 1 1 0
5 6 5 7 8 7 6 7 8 9 9 8 10 9 10 10 9 15 15 13 11 11 10 10 10 11 19 15 6 7 3 2 2 0 2 1 1 1 1 1 2 2 1
4 3 4 5 6 6 5 7 7 7 7 8 8 9 11 9 19 21 18 11 11 10 11 11 10 12 16 19 16 15 9 4 3 1 2 1 1 2 1 1 1 2 2
2 3 4 4 6 6 5 6 8 9 9 8 8 10 10 10 20 21 22 10 9 10 10 11 10 9 13 13 14 11 9 12 11 3 3 3 2 2 2 1 2 1 2
2 2 3 4 5 6 5 6 6 8 8 9 8 8 8 8 19 20 21 11 10 11 11 10 11 13 15 14 12 9 6 7 7 5 4 3 3 4 4 2 2 3 2
1 2 3 4 5 5 6 6 4 7 7 8 7 6 7 6 19 19 16 9 10 12 10 11 12 14 22 23 11 11 7 4 6 11 12 14 15 13 9 1 1 2 2
2 3 2 4 4 3 3 4 4 3 7 7 8 7 6 7 18 18 16 8 10 9 9 10 18 20 25 23 11 10 8 5 4 4 4 8 9 10 13 7 4 2 2
3 2 1 4 4 2 3 3 4 5 6 6 7 8 7 8 11 19 21 8 8 8 9 9 10 25 24 22 18 9 7 4 5 4 4 4 4 5 5 6 7 4 2
3 2 1 3 2 3 3 4 4 6 7 7 8 8 8 9 16 18 21 19 17 8 9 8 10 25 22 19 13 17 13 6 3 3 4 5 4 4 4 5 6 7 6
3 2 1 2 3 3 3 4 4 6 6 7 7 8 8 8 8 19 19 20 17 10 9 15 22 21 19 12 16 16 8 5 5 4 4 3 1 2 2 1 3 5 6
4 3 3 2 3 1 3 3 2 3 4 6 6 7 7 8 8 7 8 8 11 9 12 10 16 15 14 10 8 9 7 6 4 3 2 1 2 3 3 2 2 2 3
4 3 1 2 1 1 1 1 1 3 5 3 3 5 6 7 10 18 16 10 9 11 10 5 6 7 7 8 7 7 6 7 7 4 2 1 2 2 3 3 2 2 5
5 3 2 1 0 0 1 2 6 4 8 8 10 9 4 14 20 21 23 23 19 19 4 4 5 7 7 8 7 7 7 6 6 5 3 3 3 3 2 2 2 3 4
5 5 3 2 2 1 0 2 3 5 8 10 12 13 13 16 18 20 21 20 18 13 4 6 6 8 8 8 8 7 8 8 8 6 5 4 2 1 2 2 3 2 3
3 6 4 2 2 1 2 1 1 2 4 4 9 12 12 15 18 17 19 12 5 7 3 5 6 6 7 8 8 8 8 8 7 6 5 5 4 3 2 2 3 2 2
5 3 4 3 2 2 1 1 2 2 3 4 4 7 7 15 15 15 14 2 2 3 3 4 4 4 6 7 7 7 8 8 8 7 5 4 4 3 2 2 2 4 3
4 4 4 3 2 3 2 2 2 3 3 3 3 4 4 4 4 3 2 2 2 2 3 3 4 4 4 5 6 7 7 7 8 7 7 6 4 4 3 3 2 1 3
4 4 5 2 2 3 3 3 3 2 3 3 4 4 12 1 3 3 3 3 2 3 3 3 4 4 3 3 4 5 6 6 6 7 7 7 7 4 4 2 2 3 3
4 4 4 4 3 3 3 3 3 3 3 4 4 4 12 2 3 3 4 3 3 3 3 3 3 3 3 2 3 4 5 7 7 7 7 8 7 6 4 2 2 2 2
3 4 3 3 4 4 3 3 3 3 4 5 4 3 2 3 3 3 4 4 3 3 3 2 3 4 4 3 3 2 3 4 6 7 7 7 7 7 6 3 2 2 1
4 4 5 4 4 4 4 4 4 5 5 4 4 4 4 4 4 4 4 4 4 4 3 3 3 5 5 4 4 4 3 4 3 4 6 7 6 8 8 4 2 1 2
5 5 5 5 5 5 4 4 4 4 4 4 5 4 4 3 4 4 4 3 3 3 5 5 3 5 7 9 7 7 7 8 6 6 4 6 7 9 7 3 1 1 2
5 5 5 4 4 4 4 4 5 5 5 5 5 5 4 4 4 4 4 3 3 4 5 4 6 8 8 7 8 9 7 9 6 8 5 4 6 6 6 8 3 1 2
Wind_Direction
8 360 359 353 351 358 355 353 346 342 342 339 342 343 348 346 341 350 348 350 358 353 349 351 351 347 349 347 344 263 267 246 263 43 64 49 101 136 117 92 124 145 124
3 5 360 352 349 352 350 344 341 337 335 332 340 341 344 340 335 349 346 348 352 355 351 346 348 346 348 354 340 351 353 310 243 180 136 64 71 43 102 123 101 78 91
9 14 358 349 348 347 344 340 338 334 333 336 340 342 340 334 332 344 346 344 348 354 348 345 341 348 349 348 338 336 337 323 43 160 141 101 92 139 138 129 136 151 260
22 20 355 347 346 338 337 340 334 333 333 334 335 333 336 329 339 350 350 345 346 353 347 347 348 347 339 338 339 333 342 5 298 227 127 107 130 130 122 139 115 149 79
34 20 332 326 333 321 330 337 333 329 325 317 332 341 342 338 353 354 354 344 345 349 351 350 353 345 345 357 356 344 4 37 290 208 80 91 136 140 159 120 94 115 100
42 343 315 320 322 317 327 338 327 325 324 335 338 350 351 352 350 353 353 342 342 348 352 352 348 0 352 354 8 23 31 8 318 28 54 62 79 75 91 86 127 186 136
44 311 319 322 320 315 331 332 345 345 342 338 347 353 349 344 356 355 358 350 345 354 349 352 351 357 359 354 352 12 23 32 40 20 48 29 64 46 76 66 46 27 71
22 322 333 323 317 314 345 347 339 350 342 347 344 341 346 346 351 357 4 347 359 356 345 359 351 354 356 358 348 358 23 29 27 25 31 47 66 58 68 49 59 100 108
343 320 322 311 312 328 359 345 332 344 344 348 341 334 341 341 353 360 9 356 355 356 347 1 357 353 350 359 358 350 359 38 32 55 57 57 57 54 48 70 12 225 97
246 269 289 292 298 355 334 328 305 322 341 339 342 343 343 352 347 1 11 2 352 353 345 356 354 352 352 356 359 344 343 14 25 44 44 51 46 43 48 44 348 63 111
218 236 272 290 304 359 342 320 318 343 336 337 353 355 2 2 342 359 360 5 351 352 346 350 342 344 347 353 2 352 7 360 21 41 41 43 43 38 38 45 36 30 49
216 164 292 297 336 348 12 355 357 360 0 358 4 6 3 2 358 358 353 355 353 350 342 337 334 337 344 351 357 7 6 2 6 34 43 40 39 37 26 57 64 62 45
166 184 231 306 331 343 46 18 8 7 9 2 5 1 357 355 349 350 350 352 347 349 335 336 335 333 342 346 4 8 3 3 8 38 48 39 3 347 335 82 83 89 76
176 211 191 151 318 18 31 23 2 5 3 3 359 357 353 345 335 341 348 339 336 345 344 341 327 334 342 2 2 9 4 5 21 21 45 2 338 25 7 344 65 343 88
179 201 189 175 180 339 28 183 23 330 331 349 316 346 351 343 341 354 354 347 339 336 353 329 333 352 358 356 11 7 8 6 8 2 20 24 16 36 3 341 9 21 69
173 187 171 197 227 350 15 340 350 336 340 350 337 353 351 345 352 352 359 2 354 3 356 349 356 357 1 352 3 359 1 355 351 354 13 20 22 26 12 342 15 38 74
175 150 153 218 204 173 26 358 331 331 346 350 347 347 344 350 349 4 7 13 7 21 8 2 4 1 358 356 1 357 349 345 345 5 2 19 357 345 1 19 39 38 62
182 149 152 201 190 189 179 188 261 287 312 307 338 336 345 349 348 4 12 10 358 7 5 2 360 359 349 348 351 350 343 337 346 344 359 0 355 354 360 29 24 44 73
178 185 178 195 203 187 109 280 255 278 279 283 325 332 331 340 344 358 12 39 350 337 339 346 341 351 348 343 342 339 341 335 336 347 360 10 357 356 357 34 44 35 63
177 191 165 162 182 208 218 215 260 275 282 287 296 282 307 351 356 328 332 358 355 317 317 328 326 330 330 339 345 339 341 344 343 353 351 347 1 359 353 9 20 49 46
172 170 179 191 201 219 208 210 219 238 256 267 264 268 302 104 306 297 305 320 322 319 309 304 312 314 316 330 338 342 334 338 347 353 343 344 338 354 353 6 27 48 83
168 172 162 191 204 221 222 201 210 222 243 261 275 283 307 351 284 285 297 292 273 257 253 272 295 285 285 297 308 321 330 332 337 347 342 343 339 332 360 4 11 63 81
172 167 183 192 194 204 215 213 210 225 243 251 259 271 280 266 262 260 271 283 295 290 285 281 269 296 296 290 283 270 296 301 321 338 335 333 332 336 330 356 20 39 57
188 191 195 204 197 206 207 218 224 222 227 238 254 261 255 253 257 259 259 270 283 290 290 286 282 282 294 290 287 280 273 289 292 313 317 315 319 329 326 345 346 23 103
180 197 201 205 207 208 207 220 233 233 232 230 242 243 250 252 264 263 262 263 264 272 283 290 273 275 281 294 296 289 282 291 290 288 293 298 305 313 317 303 333 60 82
184 192 202 201 209 201 202 216 226 222 228 233 235 237 236 241 250 256 256 258 267 275 281 276 282 288 290 285 286 290 279 286 270 266 267 278 302 311 328 330 332 69 139